This demonstration page uses our WeatherBlox Daily Observations layout. Learn more.

Left ArrowRight Arrow

Hourly Observations for December 3, 2020

Temp ( °F °C ) Dew Point ( °F °C ) Humidity (%) Winds ( mph kmh ) Pressure ( in mb ) Visibility ( mi km ) Precip ( " mm )
12:15 am 00:15 Clear 27 -3 23 -5 86 86 Calm 30.36 1028 10 16.0934 N/A
12:35 am 00:35 Clear 28 -2 23 -5 80 80 Calm 30.35 1028 10 16.0934 N/A
12:55 am 00:55 Clear 27 -3 23 -5 86 86 Calm 30.35 1028 10 16.0934 N/A
1:15 am 01:15 Clear 28 -2 23 -5 80 80 Calm 30.34 1028 10 16.0934 N/A
1:35 am 01:35 Clear 28 -2 23 -5 80 80 Calm 30.33 1027 10 16.0934 N/A
1:55 am 01:55 Clear 28 -2 23 -5 80 80 Calm 30.33 1027 10 16.0934 N/A
2:15 am 02:15 Clear 27 -3 25 -4 93 93 Calm 30.34 1027 10 16.0934 N/A
2:35 am 02:35 Clear 27 -3 25 -4 93 93 Calm 30.33 1027 10 16.0934 N/A
2:55 am 02:55 Clear 28 -2 25 -4 86 86 SSW 5 7 30.32 1027 10 16.0934 N/A
3:15 am 03:15 Clear 28 -2 25 -4 86 86 Calm 30.32 1027 10 16.0934 N/A
3:35 am 03:35 Clear 27 -3 23 -5 86 86 Calm 30.33 1027 10 16.0934 N/A
3:55 am 03:55 Clear 25 -4 23 -5 93 93 Calm 30.33 1027 10 16.0934 N/A
4:15 am 04:15 Clear 23 -5 23 -5 100 100 Calm 30.31 1027 10 16.0934 N/A
4:35 am 04:35 Clear 23 -5 23 -5 100 100 Calm 30.31 1027 10 16.0934 N/A
4:55 am 04:55 Clear 23 -5 23 -5 100 100 Calm 30.3 1026 10 16.0934 N/A
5:15 am 05:15 Clear 25 -4 25 -4 100 100 Calm 30.3 1026 10 16.0934 N/A
5:35 am 05:35 Clear 25 -4 25 -4 100 100 Calm 30.3 1026 10 16.0934 N/A
5:55 am 05:55 Clear 25 -4 25 -4 100 100 Calm 30.3 1026 10 16.0934 N/A
6:15 am 06:15 Clear 25 -4 25 -4 100 100 Calm 30.32 1027 10 16.0934 N/A
6:35 am 06:35 Clear 25 -4 25 -4 100 100 Calm 30.32 1027 10 16.0934 N/A
6:55 am 06:55 Clear 23 -5 23 -5 100 100 Calm 30.33 1027 10 16.0934 N/A
7:15 am 07:15 Clear 23 -5 23 -5 100 100 Calm 30.33 1027 10 16.0934 N/A
7:35 am 07:35 Clear 25 -4 25 -4 100 100 Calm 30.34 1027 10 16.0934 N/A
7:55 am 07:55 Sunny 25 -4 25 -4 100 100 Calm 30.34 1027 10 16.0934 N/A
8:15 am 08:15 Sunny 25 -4 25 -4 100 100 Calm 30.33 1027 10 16.0934 N/A
8:35 am 08:35 Sunny 27 -3 27 -3 100 100 Calm 30.32 1027 10 16.0934 N/A
8:55 am 08:55 Sunny 28 -2 28 -2 100 100 Calm 30.31 1027 10 16.0934 N/A
9:15 am 09:15 Mostly Cloudy 28 -2 28 -2 100 100 Calm N/A 10 16.0934 N/A
9:35 am 09:35 Cloudy 30 -1 28 -2 93 93 Calm 30.32 1027 10 16.0934 N/A
9:55 am 09:55 Cloudy 30 -1 30 -1 100 100 Calm 30.31 1026 10 16.0934 N/A
10:55 am 10:55 Mostly Cloudy 34 1 32 0 93 93 Calm 30.29 1026 10 16.0934 N/A
11:15 am 11:15 Cloudy 34 1 32 0 93 93 SSW 3 6 30.3 1026 10 16.0934 N/A
11:35 am 11:35 Cloudy 36 2 32 0 87 87 S 9 15 30.3 1026 10 16.0934 N/A
11:55 am 11:55 Cloudy 36 2 32 0 87 87 Calm 30.28 1025 10 16.0934 N/A
12:15 pm 12:15 Mostly Cloudy 36 2 32 0 87 87 Calm 30.25 1024 10 16.0934 N/A
12:35 pm 12:35 Mostly Cloudy 37 3 34 1 87 87 Calm 30.25 1025 10 16.0934 N/A
12:55 pm 12:55 Partly Cloudy 39 4 30 -1 70 70 SW 8 13 30.24 1024 10 16.0934 N/A
1:15 pm 13:15 Partly Cloudy 39 4 30 -1 70 70 SSW 9 15 30.24 1024 10 16.0934 N/A
1:35 pm 13:35 Partly Cloudy 41 5 30 -1 66 66 SW 12 19 30.22 1023 10 16.0934 N/A
1:55 pm 13:55 Mostly Cloudy 41 5 32 0 70 70 SSW 9 15 30.22 1023 10 16.0934 N/A
2:15 pm 14:15 Mostly Cloudy 43 6 32 0 66 66 SSW 10 17 30.2 1023 10 16.0934 N/A
2:35 pm 14:35 Cloudy 41 5 30 -1 66 66 SW 8 13 30.2 1023 10 16.0934 N/A
2:55 pm 14:55 Partly Cloudy 43 6 30 -1 61 61 SW 9 15 30.18 1022 10 16.0934 N/A
3:15 pm 15:15 Partly Cloudy 45 7 30 -1 57 57 SW 7 11 30.16 1021 10 16.0934 N/A
3:35 pm 15:35 Mostly Cloudy 41 5 30 -1 66 66 W 8 13 30.18 1022 10 16.0934 N/A
3:55 pm 15:55 Cloudy 41 5 32 0 70 70 SW 6 9 30.19 1022 10 16.0934 N/A
4:15 pm 16:15 Cloudy 43 6 32 0 66 66 SSW 6 9 30.18 1022 10 16.0934 N/A
4:35 pm 16:35 Cloudy 41 5 32 0 70 70 S 6 9 30.17 1022 10 16.0934 N/A
4:55 pm 16:55 Cloudy 41 5 32 0 70 70 S 6 9 30.17 1022 10 16.0934 N/A
5:15 pm 17:15 Cloudy 39 4 32 0 75 75 S 8 13 30.16 1021 10 16.0934 N/A
5:35 pm 17:35 Cloudy 39 4 32 0 75 75 S 10 17 30.17 1022 10 16.0934 N/A
5:55 pm 17:55 Cloudy 39 4 32 0 75 75 S 8 13 30.17 1022 10 16.0934 N/A
6:15 pm 18:15 Mostly Cloudy 37 3 32 0 81 81 SSW 8 13 30.17 1022 10 16.0934 N/A
6:35 pm 18:35 Mostly Cloudy 37 3 32 0 81 81 S 7 11 30.16 1021 10 16.0934 N/A
6:55 pm 18:55 Cloudy 37 3 32 0 81 81 S 7 11 30.16 1021 10 16.0934 N/A
7:15 pm 19:15 Cloudy 37 3 32 0 81 81 S 5 7 30.16 1021 10 16.0934 N/A
7:35 pm 19:35 Cloudy 37 3 32 0 81 81 Calm 30.16 1021 10 16.0934 N/A
7:55 pm 19:55 Cloudy 37 3 32 0 81 81 Calm 30.16 1021 10 16.0934 N/A
8:15 pm 20:15 Cloudy 37 3 32 0 81 81 Calm 30.15 1021 10 16.0934 N/A
8:35 pm 20:35 Cloudy 37 3 34 1 87 87 Calm 30.14 1021 10 16.0934 N/A
8:55 pm 20:55 Cloudy 37 3 34 1 87 87 Calm 30.14 1021 10 16.0934 N/A
9:15 pm 21:15 Cloudy 37 3 32 0 81 81 S 8 13 30.15 1021 10 16.0934 N/A
9:35 pm 21:35 Cloudy 37 3 32 0 81 81 Calm 30.14 1021 10 16.0934 N/A
9:55 pm 21:55 Cloudy 37 3 34 1 87 87 S 8 13 30.15 1021 10 16.0934 N/A
10:15 pm 22:15 Cloudy 37 3 34 1 87 87 S 6 9 30.14 1021 10 16.0934 N/A
10:35 pm 22:35 Cloudy 37 3 34 1 87 87 S 6 9 30.14 1021 10 16.0934 N/A
10:55 pm 22:55 Cloudy 37 3 34 1 87 87 S 7 11 30.15 1021 10 16.0934 N/A
11:15 pm 23:15 Cloudy 37 3 34 1 87 87 S 5 7 30.14 1021 10 16.0934 N/A
11:35 pm 23:35 Cloudy 37 3 34 1 87 87 SSW 5 7 30.14 1021 10 16.0934 N/A
11:55 pm 23:55 Cloudy 37 3 34 1 87 87 S 6 9 30.14 1021 10 16.0934 N/A

Powered by AerisWeather